OVZON-3

Last updated on Tue Sep 16 2025 00:02:51 GMT+0000 (Coordinated Universal Time)

1 58698U 24003A 25258.45370870 .00000035 00000+0 00000+0 0 9997 2 58698 0.0139 184.5946 0000090 79.0979 314.0167 1.00272242 4688
UTC large
Height (km)
Speed (km/s)
/
Latitude / Longitude
Inclination (degrees)
Orbital Period (minutes)
Azimuth
Elevation
Range (km)
Doppler Factor

Next 0 passes for location: London (51.5072 / 0.1276)

Sorry there are no passes over London.